Terug naar catalogus

COSMOS 2481

ActiefNavigatiePO
NORAD 38733·PAYLOAD·🇷🇺 Russia

Gelanceerd Jul 28, 2012 vanaf Plesetsk Cosmodrome

Loading…

Volgende Passages (komende 24 uur)

TLE

VersSource: Space-Track

Epoch: Sep 14, 2026, 22:08 UTC

1 38733U 12041A   26257.92243980 -.00000041  00000-0 -36892-3 0  9999
2 38733  82.4792  19.2633 0018088 238.6671 121.2638 12.42436310640896

Volg COSMOS 2481 in realtime met AllMySat

Download on the App Store